Terminal Aerodrome Forecast
Issued by NWS Boston, MA

Home | Current Version | Previous Version | Text Only | Print | Product List | Glossary Off
Versions: 1 2 3 4 5 6 7 8 9 10 11 12 13 14 15 16 17 18 19 20 21 22 23 24 25 26 27
000 FTUS41 KBOX 212320 TAFORH TAF KORH 212320Z 2200/2224 05004KT P6SM OVC006 FM220300 03004KT 6SM BR OVC008 FM220600 02006KT 3SM -RADZ BR OVC008 FM222200 01009KT 3SM RA BR OVC008=

USA.gov is the U.S. government's official web portal to all federal, state and local government web resources and services.